Back to catalog

CZ-6A DEB

AliveSSO
NORAD 69092·DEBRIS·🇨🇳 China

Launched Nov 11, 2022 from Taiyuan Satellite Launch Center

Loading…

Next Passes (next 24 hours)

TLE

FreshSource: Space-Track

Epoch: Sep 13, 2026, 12:56 UTC

1 69092U 22151AJK 26256.53956207  .00004802  00000-0  16937-2 0  9997
2 69092  98.8330 285.2227 0027535  23.3581 336.8847 14.35011073174119

Track CZ-6A DEB in real time with AllMySat

Download on the App Store